Location: Namasale
(1.5000°N, 32.6167°E)
Time: 16:56:14
(UTC+00:00)

Vanguard 2 Rocket - Pass Details

Date: 28 April 2021
Orbit: 554 x 3326 km, 32.9° (Epoch: 10 May)

Event Time Altitude Azimuth Distance (km) Brightness Sun altitude
Rises 15:46:51 0° 310° (NW) 7,307 12.9 0.4°
Reaches altitude 10° 15:52:01 10° 313° (NW) 6,240 12.3 -0.8°
Maximum altitude 16:11:19 66° 33° (NNE) 2,783 9.3 -5.5°
Drops below altitude 10° 16:23:30 10° 112° (ESE) 4,177 9.6 -8.5°
Enters shadow 16:23:45 - 113° (ESE) 4,238 9.6 -8.5°
